WXM80 ListenWXM80 Stop

You find our weather info also at:

UK Metoffice

WeatherCloud

Weather Underground

Northeastern Weather Network

AWEKAS

Citizen Weather Observer Program (CWOP)

HAMweather, WeatherForYou, PWS Weather


Weather Underground History page Text

Daily Summary for November 29, 2017 Units:  Both    English   Metric
« Previous Day
Next Day »
Daily Weekly Monthly Yearly Custom
  High: Low: Average:
Temperature: 62.5 °F /  16.9 °C 42.7 °F /  5.9 °C 52.1 °F /  11.2 °C
Dew Point: 48.7 °F /  9.3 °C 30.2 °F /  -1 °C 40.6 °F /  4.8 °C
Humidity: 93 % 37 % 67 %
Wind Speed: 11.1 mph /  17.9 km/h - 5.2 mph /  8.4 km/h
Wind Gust: 18.0 mph /  29 km/h - -
Wind:- - SW
Pressure: 30.32 in /  1026.6 hPa 30.04 in /  1017.2 hPa -
Precipitation: 0.00 in /  0 mm    
Historical Graphs
 
 
Tabular Data for November 29, 2017
Time Temperature Dew Point Pressure Wind Wind Speed Wind Gust Humidity Rainfall Rate (Hourly)
00:09 50.3 °F /  10.2 °C 47.8 °F /  8.8 °C 30.18 in /  1021.9 hPa South 1.9 mph /  3.1 km/h 4.6 mph /  7.4 km/h 91 % 0.00 in /  0 mm
00:14 50.4 °F /  10.2 °C 47.9 °F /  8.8 °C 30.18 in /  1021.9 hPa South 6.0 mph /  9.7 km/h 10.4 mph /  16.7 km/h 91 % 0.00 in /  0 mm
00:34 50.7 °F /  10.4 °C 48.5 °F /  9.2 °C 30.17 in /  1021.6 hPa WSW 2.6 mph /  4.2 km/h 4.6 mph /  7.4 km/h 92 % 0.00 in /  0 mm
00:44 50.9 °F /  10.5 °C 48.4 °F /  9.1 °C 30.16 in /  1021.2 hPa SW 5.9 mph /  9.5 km/h 11.5 mph /  18.5 km/h 91 % 0.00 in /  0 mm
00:49 51.0 °F /  10.6 °C 48.5 °F /  9.2 °C 30.16 in /  1021.2 hPa South 6.2 mph /  10 km/h 10.4 mph /  16.7 km/h 91 % 0.00 in /  0 mm
00:54 51.0 °F /  10.6 °C 48.5 °F /  9.2 °C 30.16 in /  1021.2 hPa SSE 6.5 mph /  10.5 km/h 10.4 mph /  16.7 km/h 91 % 0.00 in /  0 mm
00:59 51.1 °F /  10.6 °C 48.6 °F /  9.2 °C 30.16 in /  1021.2 hPa SSW 6.4 mph /  10.3 km/h 12.7 mph /  20.4 km/h 91 % 0.00 in /  0 mm
01:09 51.2 °F /  10.7 °C 48.7 °F /  9.3 °C 30.16 in /  1021.2 hPa South 3.9 mph /  6.3 km/h 6.9 mph /  11.1 km/h 91 % 0.00 in /  0 mm
01:14 51.2 °F /  10.7 °C 48.7 °F /  9.3 °C 30.16 in /  1021.2 hPa South 4.1 mph /  6.6 km/h 6.9 mph /  11.1 km/h 91 % 0.00 in /  0 mm
01:24 51.2 °F /  10.7 °C 48.4 °F /  9.1 °C 30.16 in /  1021.2 hPa South 5.5 mph /  8.9 km/h 9.2 mph /  14.8 km/h 90 % 0.00 in /  0 mm
01:34 51.1 °F /  10.6 °C 48.3 °F /  9.1 °C 30.17 in /  1021.6 hPa SSW 1.9 mph /  3.1 km/h 5.8 mph /  9.3 km/h 90 % 0.00 in /  0 mm
01:44 51.1 °F /  10.6 °C 48.3 °F /  9.1 °C 30.17 in /  1021.6 hPa WSW 3.4 mph /  5.5 km/h 5.0 mph /  8 km/h 90 % 0.00 in /  0 mm
01:49 51.1 °F /  10.6 °C 48.3 °F /  9.1 °C 30.17 in /  1021.6 hPa West 1.8 mph /  2.9 km/h 6.9 mph /  11.1 km/h 90 % 0.00 in /  0 mm
01:54 51.0 °F /  10.6 °C 48.2 °F /  9 °C 30.16 in /  1021.2 hPa SW 1.9 mph /  3.1 km/h 4.6 mph /  7.4 km/h 90 % 0.00 in /  0 mm
01:59 51.0 °F /  10.6 °C 48.2 °F /  9 °C 30.16 in /  1021.2 hPa SW 1.4 mph /  2.3 km/h 3.5 mph /  5.6 km/h 90 % 0.00 in /  0 mm
02:04 50.9 °F /  10.5 °C 48.1 °F /  8.9 °C 30.16 in /  1021.2 hPa SW 3.4 mph /  5.5 km/h 4.6 mph /  7.4 km/h 90 % 0.00 in /  0 mm
02:10 50.9 °F /  10.5 °C 48.1 °F /  8.9 °C 30.16 in /  1021.2 hPa WSW 2.2 mph /  3.5 km/h 6.9 mph /  11.1 km/h 90 % 0.00 in /  0 mm
02:20 50.7 °F /  10.4 °C 47.9 °F /  8.8 °C 30.15 in /  1020.9 hPa WSW 1.5 mph /  2.4 km/h 3.5 mph /  5.6 km/h 90 % 0.00 in /  0 mm
02:25 50.6 °F /  10.3 °C 47.5 °F /  8.6 °C 30.16 in /  1021.2 hPa WSW 2.5 mph /  4 km/h 4.6 mph /  7.4 km/h 89 % 0.00 in /  0 mm
02:30 50.5 °F /  10.3 °C 47.4 °F /  8.6 °C 30.15 in /  1020.9 hPa West 1.0 mph /  1.6 km/h 3.5 mph /  5.6 km/h 89 % 0.00 in /  0 mm
02:40 50.3 °F /  10.2 °C 47.2 °F /  8.4 °C 30.15 in /  1020.9 hPa WSW 2.0 mph /  3.2 km/h 5.8 mph /  9.3 km/h 89 % 0.00 in /  0 mm
02:45 50.2 °F /  10.1 °C 47.4 °F /  8.6 °C 30.14 in /  1020.5 hPa WSW 0.2 mph /  0.3 km/h 1.2 mph /  1.9 km/h 90 % 0.00 in /  0 mm
02:50 50.1 °F /  10.1 °C 47.0 °F /  8.3 °C 30.14 in /  1020.5 hPa Calm     89 % 0.00 in /  0 mm
02:55 50.0 °F /  10 °C 46.9 °F /  8.3 °C 30.13 in /  1020.2 hPa SW 2.6 mph /  4.2 km/h 5.8 mph /  9.3 km/h 89 % 0.00 in /  0 mm
03:00 49.9 °F /  9.9 °C 46.8 °F /  8.2 °C 30.12 in /  1019.9 hPa SW 3.5 mph /  5.6 km/h 6.0 mph /  9.7 km/h 89 % 0.00 in /  0 mm
03:05 49.7 °F /  9.8 °C 46.9 °F /  8.3 °C 30.12 in /  1019.9 hPa WSW 1.9 mph /  3.1 km/h 3.5 mph /  5.6 km/h 90 % 0.00 in /  0 mm
03:10 49.6 °F /  9.8 °C 46.8 °F /  8.2 °C 30.12 in /  1019.9 hPa WSW 1.6 mph /  2.6 km/h 3.5 mph /  5.6 km/h 90 % 0.00 in /  0 mm
03:15 49.6 °F /  9.8 °C 47.1 °F /  8.4 °C 30.12 in /  1019.9 hPa WSW 2.0 mph /  3.2 km/h 4.6 mph /  7.4 km/h 91 % 0.00 in /  0 mm
03:20 49.6 °F /  9.8 °C 47.1 °F /  8.4 °C 30.12 in /  1019.9 hPa SSW 1.0 mph /  1.6 km/h 4.6 mph /  7.4 km/h 91 % 0.00 in /  0 mm
03:25 49.6 °F /  9.8 °C 47.4 °F /  8.6 °C 30.11 in /  1019.5 hPa SW 2.1 mph /  3.4 km/h 4.6 mph /  7.4 km/h 92 % 0.00 in /  0 mm
03:30 49.6 °F /  9.8 °C 47.4 °F /  8.6 °C 30.11 in /  1019.5 hPa WSW 4.3 mph /  6.9 km/h 8.1 mph /  13 km/h 92 % 0.00 in /  0 mm
03:35 49.7 °F /  9.8 °C 47.5 °F /  8.6 °C 30.11 in /  1019.5 hPa WSW 6.1 mph /  9.8 km/h 10.4 mph /  16.7 km/h 92 % 0.00 in /  0 mm
03:40 49.7 °F /  9.8 °C 47.5 °F /  8.6 °C 30.11 in /  1019.5 hPa WSW 4.2 mph /  6.8 km/h 10.0 mph /  16.1 km/h 92 % 0.00 in /  0 mm
03:45 49.9 °F /  9.9 °C 48.0 °F /  8.9 °C 30.11 in /  1019.5 hPa WSW 3.8 mph /  6.1 km/h 8.1 mph /  13 km/h 93 % 0.00 in /  0 mm
03:50 49.9 °F /  9.9 °C 48.0 °F /  8.9 °C 30.11 in /  1019.5 hPa SSW 4.2 mph /  6.8 km/h 5.0 mph /  8 km/h 93 % 0.00 in /  0 mm
03:55 50.0 °F /  10 °C 48.1 °F /  8.9 °C 30.11 in /  1019.5 hPa SSW 4.5 mph /  7.2 km/h 11.5 mph /  18.5 km/h 93 % 0.00 in /  0 mm
04:00 50.2 °F /  10.1 °C 48.3 °F /  9.1 °C 30.10 in /  1019.2 hPa South 6.2 mph /  10 km/h 10.4 mph /  16.7 km/h 93 % 0.00 in /  0 mm
04:05 50.3 °F /  10.2 °C 48.4 °F /  9.1 °C 30.10 in /  1019.2 hPa SSW 4.2 mph /  6.8 km/h 9.2 mph /  14.8 km/h 93 % 0.00 in /  0 mm
04:15 50.5 °F /  10.3 °C 48.6 °F /  9.2 °C 30.09 in /  1018.8 hPa WSW 6.9 mph /  11.1 km/h 11.5 mph /  18.5 km/h 93 % 0.00 in /  0 mm
04:21 50.5 °F /  10.3 °C 48.6 °F /  9.2 °C 30.09 in /  1018.8 hPa SW 7.0 mph /  11.3 km/h 13.0 mph /  20.9 km/h 93 % 0.00 in /  0 mm
04:26 50.6 °F /  10.3 °C 48.7 °F /  9.3 °C 30.09 in /  1018.8 hPa SW 6.0 mph /  9.7 km/h 13.0 mph /  20.9 km/h 93 % 0.00 in /  0 mm
04:31 50.6 °F /  10.3 °C 48.4 °F /  9.1 °C 30.09 in /  1018.8 hPa SW 5.0 mph /  8 km/h 10.0 mph /  16.1 km/h 92 % 0.00 in /  0 mm
04:36 50.6 °F /  10.3 °C 48.4 °F /  9.1 °C 30.09 in /  1018.8 hPa SSW 8.0 mph /  12.9 km/h 14.0 mph /  22.5 km/h 92 % 0.00 in /  0 mm
04:39 50.6 °F /  10.3 °C 48.4 °F /  9.1 °C 30.08 in /  1018.5 hPa SSW 5.2 mph /  8.4 km/h 11.0 mph /  17.7 km/h 92 % 0.00 in /  0 mm
04:44 50.6 °F /  10.3 °C 48.4 °F /  9.1 °C 30.08 in /  1018.5 hPa SSW 4.2 mph /  6.8 km/h 9.2 mph /  14.8 km/h 92 % 0.00 in /  0 mm
04:54 50.6 °F /  10.3 °C 48.4 °F /  9.1 °C 30.08 in /  1018.5 hPa SSW 5.9 mph /  9.5 km/h 10.4 mph /  16.7 km/h 92 % 0.00 in /  0 mm
05:04 50.5 °F /  10.3 °C 48.3 °F /  9.1 °C 30.07 in /  1018.2 hPa South 3.7 mph /  6 km/h 10.4 mph /  16.7 km/h 92 % 0.00 in /  0 mm
05:14 50.3 °F /  10.2 °C 48.1 °F /  8.9 °C 30.07 in /  1018.2 hPa SW 8.4 mph /  13.5 km/h 8.4 mph /  13.5 km/h 92 % 0.00 in /  0 mm
05:19 50.3 °F /  10.2 °C 48.1 °F /  8.9 °C 30.07 in /  1018.2 hPa SSW 6.8 mph /  10.9 km/h 13.0 mph /  20.9 km/h 92 % 0.00 in /  0 mm
05:30 50.2 °F /  10.1 °C 48.0 °F /  8.9 °C 30.06 in /  1017.8 hPa SSW 6.3 mph /  10.1 km/h 11.5 mph /  18.5 km/h 92 % 0.00 in /  0 mm
05:35 50.2 °F /  10.1 °C 47.7 °F /  8.7 °C 30.07 in /  1018.2 hPa SW 4.8 mph /  7.7 km/h 13.8 mph /  22.2 km/h 91 % 0.00 in /  0 mm
05:45 50.1 °F /  10.1 °C 47.6 °F /  8.7 °C 30.06 in /  1017.8 hPa SSW 5.1 mph /  8.2 km/h 9.2 mph /  14.8 km/h 91 % 0.00 in /  0 mm
05:55 50.0 °F /  10 °C 47.2 °F /  8.4 °C 30.06 in /  1017.8 hPa SSW 5.2 mph /  8.4 km/h 11.5 mph /  18.5 km/h 90 % 0.00 in /  0 mm
06:00 49.9 °F /  9.9 °C 47.1 °F /  8.4 °C 30.06 in /  1017.8 hPa SW 7.9 mph /  12.7 km/h 11.5 mph /  18.5 km/h 90 % 0.00 in /  0 mm
06:05 49.9 °F /  9.9 °C 47.1 °F /  8.4 °C 30.06 in /  1017.8 hPa SSW 8.2 mph /  13.2 km/h 12.7 mph /  20.4 km/h 90 % 0.00 in /  0 mm
06:15 49.7 °F /  9.8 °C 46.9 °F /  8.3 °C 30.06 in /  1017.8 hPa SSW 2.8 mph /  4.5 km/h 5.8 mph /  9.3 km/h 90 % 0.00 in /  0 mm
06:20 49.6 °F /  9.8 °C 46.8 °F /  8.2 °C 30.06 in /  1017.8 hPa South 6.4 mph /  10.3 km/h 12.7 mph /  20.4 km/h 90 % 0.00 in /  0 mm
06:25 49.5 °F /  9.7 °C 46.7 °F /  8.2 °C 30.06 in /  1017.8 hPa SSW 5.4 mph /  8.7 km/h 8.1 mph /  13 km/h 90 % 0.00 in /  0 mm
06:30 49.4 °F /  9.7 °C 46.3 °F /  7.9 °C 30.06 in /  1017.8 hPa SW 5.5 mph /  8.9 km/h 7.0 mph /  11.3 km/h 89 % 0.00 in /  0 mm
06:35 49.4 °F /  9.7 °C 46.3 °F /  7.9 °C 30.06 in /  1017.8 hPa SSW 5.9 mph /  9.5 km/h 9.2 mph /  14.8 km/h 89 % 0.00 in /  0 mm
06:45 49.3 °F /  9.6 °C 46.2 °F /  7.9 °C 30.07 in /  1018.2 hPa SSW 5.7 mph /  9.2 km/h 6.9 mph /  11.1 km/h 89 % 0.00 in /  0 mm
06:51 49.2 °F /  9.6 °C 46.1 °F /  7.8 °C 30.07 in /  1018.2 hPa SW 5.0 mph /  8 km/h 12.0 mph /  19.3 km/h 89 % 0.00 in /  0 mm
06:56 49.1 °F /  9.5 °C 46.0 °F /  7.8 °C 30.08 in /  1018.5 hPa SW 3.0 mph /  4.8 km/h 8.0 mph /  12.9 km/h 89 % 0.00 in /  0 mm
07:01 49.1 °F /  9.5 °C 45.7 °F /  7.6 °C 30.08 in /  1018.5 hPa SSW 3.7 mph /  6 km/h 7.0 mph /  11.3 km/h 88 % 0.00 in /  0 mm
07:06 49.1 °F /  9.5 °C 45.7 °F /  7.6 °C 30.08 in /  1018.5 hPa SW 2.5 mph /  4 km/h 5.8 mph /  9.3 km/h 88 % 0.00 in /  0 mm
07:16 49.0 °F /  9.4 °C 45.6 °F /  7.6 °C 30.07 in /  1018.2 hPa SW 5.2 mph /  8.4 km/h 8.1 mph /  13 km/h 88 % 0.00 in /  0 mm
07:26 49.0 °F /  9.4 °C 45.3 °F /  7.4 °C 30.06 in /  1017.8 hPa SSW 6.1 mph /  9.8 km/h 8.1 mph /  13 km/h 87 % 0.00 in /  0 mm
07:31 49.1 °F /  9.5 °C 45.4 °F /  7.4 °C 30.07 in /  1018.2 hPa South 6.8 mph /  10.9 km/h 11.5 mph /  18.5 km/h 87 % 0.00 in /  0 mm
07:36 49.2 °F /  9.6 °C 45.5 °F /  7.5 °C 30.06 in /  1017.8 hPa SW 5.4 mph /  8.7 km/h 8.1 mph /  13 km/h 87 % 0.00 in /  0 mm
07:41 49.2 °F /  9.6 °C 45.2 °F /  7.3 °C 30.06 in /  1017.8 hPa SW 3.5 mph /  5.6 km/h 6.9 mph /  11.1 km/h 86 % 0.00 in /  0 mm
07:46 49.4 °F /  9.7 °C 45.4 °F /  7.4 °C 30.06 in /  1017.8 hPa SW 4.9 mph /  7.9 km/h 8.1 mph /  13 km/h 86 % 0.00 in /  0 mm
08:01 49.7 °F /  9.8 °C 45.1 °F /  7.3 °C 30.06 in /  1017.8 hPa SSW 6.0 mph /  9.7 km/h 10.4 mph /  16.7 km/h 84 % 0.00 in /  0 mm
08:02 49.8 °F /  9.9 °C 45.2 °F /  7.3 °C 30.06 in /  1017.8 hPa SW 7.1 mph /  11.4 km/h 10.0 mph /  16.1 km/h 84 % 0.00 in /  0 mm
08:17 50.3 °F /  10.2 °C 44.7 °F /  7.1 °C 30.07 in /  1018.2 hPa SSW 5.3 mph /  8.5 km/h 9.2 mph /  14.8 km/h 81 % 0.00 in /  0 mm
08:22 50.4 °F /  10.2 °C 44.5 °F /  6.9 °C 30.07 in /  1018.2 hPa SSW 6.5 mph /  10.5 km/h 11.5 mph /  18.5 km/h 80 % 0.00 in /  0 mm
08:27 50.5 °F /  10.3 °C 44.2 °F /  6.8 °C 30.07 in /  1018.2 hPa WSW 7.1 mph /  11.4 km/h 11.5 mph /  18.5 km/h 79 % 0.00 in /  0 mm
08:42 51.2 °F /  10.7 °C 44.2 °F /  6.8 °C 30.07 in /  1018.2 hPa SSW 6.3 mph /  10.1 km/h 13.8 mph /  22.2 km/h 77 % 0.00 in /  0 mm
08:47 51.5 °F /  10.8 °C 44.5 °F /  6.9 °C 30.07 in /  1018.2 hPa SW 6.1 mph /  9.8 km/h 13.8 mph /  22.2 km/h 77 % 0.00 in /  0 mm
08:52 51.9 °F /  11.1 °C 44.6 °F /  7 °C 30.07 in /  1018.2 hPa SW 6.5 mph /  10.5 km/h 7.0 mph /  11.3 km/h 76 % 0.00 in /  0 mm
08:57 52.3 °F /  11.3 °C 44.6 °F /  7 °C 30.07 in /  1018.2 hPa WSW 7.8 mph /  12.6 km/h 12.7 mph /  20.4 km/h 75 % 0.00 in /  0 mm
09:02 52.7 °F /  11.5 °C 44.6 °F /  7 °C 30.07 in /  1018.2 hPa SSW 2.3 mph /  3.7 km/h 6.9 mph /  11.1 km/h 74 % 0.00 in /  0 mm
09:08 52.9 °F /  11.6 °C 44.1 °F /  6.7 °C 30.07 in /  1018.2 hPa West 5.0 mph /  8 km/h 11.5 mph /  18.5 km/h 72 % 0.00 in /  0 mm
09:12 53.1 °F /  11.7 °C 43.9 °F /  6.6 °C 30.07 in /  1018.2 hPa WSW 11.1 mph /  17.9 km/h 17.3 mph /  27.8 km/h 71 % 0.00 in /  0 mm
09:18 53.3 °F /  11.8 °C 43.8 °F /  6.6 °C 30.07 in /  1018.2 hPa SW 3.3 mph /  5.3 km/h 11.5 mph /  18.5 km/h 70 % 0.00 in /  0 mm
09:23 53.4 °F /  11.9 °C 43.9 °F /  6.6 °C 30.07 in /  1018.2 hPa WSW 4.4 mph /  7.1 km/h 11.5 mph /  18.5 km/h 70 % 0.00 in /  0 mm
09:28 53.5 °F /  11.9 °C 44.0 °F /  6.7 °C 30.07 in /  1018.2 hPa WSW 2.9 mph /  4.7 km/h 10.4 mph /  16.7 km/h 70 % 0.00 in /  0 mm
09:33 53.5 °F /  11.9 °C 43.6 °F /  6.4 °C 30.07 in /  1018.2 hPa SSW 3.0 mph /  4.8 km/h 6.0 mph /  9.7 km/h 69 % 0.00 in /  0 mm
09:43 53.6 °F /  12 °C 43.3 °F /  6.3 °C 30.07 in /  1018.2 hPa SW 5.0 mph /  8 km/h 7.0 mph /  11.3 km/h 68 % 0.00 in /  0 mm
09:48 53.9 °F /  12.2 °C 42.8 °F /  6 °C 30.06 in /  1017.8 hPa SW 5.6 mph /  9 km/h 8.1 mph /  13 km/h 66 % 0.00 in /  0 mm
09:53 54.2 °F /  12.3 °C 42.7 °F /  5.9 °C 30.07 in /  1018.2 hPa WSW 7.0 mph /  11.3 km/h 16.1 mph /  25.9 km/h 65 % 0.00 in /  0 mm
09:58 54.7 °F /  12.6 °C 42.3 °F /  5.7 °C 30.07 in /  1018.2 hPa West 8.4 mph /  13.5 km/h 11.5 mph /  18.5 km/h 63 % 0.00 in /  0 mm
10:03 55.1 °F /  12.8 °C 42.3 °F /  5.7 °C 30.07 in /  1018.2 hPa WSW 5.6 mph /  9 km/h 15.0 mph /  24.1 km/h 62 % 0.00 in /  0 mm
10:08 55.4 °F /  13 °C 41.7 °F /  5.4 °C 30.07 in /  1018.2 hPa SW 8.9 mph /  14.3 km/h 11.5 mph /  18.5 km/h 60 % 0.00 in /  0 mm
10:19 55.6 °F /  13.1 °C 41.9 °F /  5.5 °C 30.06 in /  1017.8 hPa WSW 9.8 mph /  15.8 km/h 14.0 mph /  22.5 km/h 60 % 0.00 in /  0 mm
10:24 55.8 °F /  13.2 °C 41.7 °F /  5.4 °C 30.07 in /  1018.2 hPa West 9.8 mph /  15.8 km/h 13.8 mph /  22.2 km/h 59 % 0.00 in /  0 mm
10:34 56.1 °F /  13.4 °C 42.0 °F /  5.6 °C 30.06 in /  1017.8 hPa SW 7.2 mph /  11.6 km/h 12.7 mph /  20.4 km/h 59 % 0.00 in /  0 mm
10:49 56.6 °F /  13.7 °C 42.0 °F /  5.6 °C 30.06 in /  1017.8 hPa WSW 3.8 mph /  6.1 km/h 10.4 mph /  16.7 km/h 58 % 0.00 in /  0 mm
10:54 56.7 °F /  13.7 °C 42.1 °F /  5.6 °C 30.06 in /  1017.8 hPa SW 8.2 mph /  13.2 km/h 12.7 mph /  20.4 km/h 58 % 0.00 in /  0 mm
10:59 56.7 °F /  13.7 °C 41.6 °F /  5.3 °C 30.06 in /  1017.8 hPa WSW 4.2 mph /  6.8 km/h 13.0 mph /  20.9 km/h 57 % 0.00 in /  0 mm
11:04 56.7 °F /  13.7 °C 41.6 °F /  5.3 °C 30.06 in /  1017.8 hPa West 2.0 mph /  3.2 km/h 8.1 mph /  13 km/h 57 % 0.00 in /  0 mm
11:09 56.7 °F /  13.7 °C 41.6 °F /  5.3 °C 30.06 in /  1017.8 hPa SW 5.0 mph /  8 km/h 11.5 mph /  18.5 km/h 57 % 0.00 in /  0 mm
11:19 56.8 °F /  13.8 °C 41.7 °F /  5.4 °C 30.06 in /  1017.8 hPa WSW 2.1 mph /  3.4 km/h 5.8 mph /  9.3 km/h 57 % 0.00 in /  0 mm
11:24 56.8 °F /  13.8 °C 41.7 °F /  5.4 °C 30.05 in /  1017.5 hPa SW 5.5 mph /  8.9 km/h 11.5 mph /  18.5 km/h 57 % 0.00 in /  0 mm
11:29 56.9 °F /  13.8 °C 41.8 °F /  5.4 °C 30.05 in /  1017.5 hPa West 3.5 mph /  5.6 km/h 8.1 mph /  13 km/h 57 % 0.00 in /  0 mm
11:34 57.0 °F /  13.9 °C 41.9 °F /  5.5 °C 30.05 in /  1017.5 hPa WSW 3.9 mph /  6.3 km/h 6.9 mph /  11.1 km/h 57 % 0.00 in /  0 mm
11:44 57.3 °F /  14.1 °C 41.3 °F /  5.2 °C 30.05 in /  1017.5 hPa WSW 6.1 mph /  9.8 km/h 11.5 mph /  18.5 km/h 55 % 0.00 in /  0 mm
11:49 57.4 °F /  14.1 °C 41.4 °F /  5.2 °C 30.05 in /  1017.5 hPa SW 5.3 mph /  8.5 km/h 13.8 mph /  22.2 km/h 55 % 0.00 in /  0 mm
11:54 57.5 °F /  14.2 °C 41.4 °F /  5.2 °C 30.05 in /  1017.5 hPa WSW 6.1 mph /  9.8 km/h 11.0 mph /  17.7 km/h 55 % 0.00 in /  0 mm
12:15 58.5 °F /  14.7 °C 41.4 °F /  5.2 °C 30.05 in /  1017.5 hPa WSW 4.3 mph /  6.9 km/h 8.1 mph /  13 km/h 53 % 0.00 in /  0 mm
12:20 58.9 °F /  14.9 °C 41.8 °F /  5.4 °C 30.05 in /  1017.5 hPa WSW 3.3 mph /  5.3 km/h 9.2 mph /  14.8 km/h 53 % 0.00 in /  0 mm
12:25 59.2 °F /  15.1 °C 41.1 °F /  5.1 °C 30.05 in /  1017.5 hPa WNW 5.6 mph /  9 km/h 7.0 mph /  11.3 km/h 51 % 0.00 in /  0 mm
12:30 59.6 °F /  15.3 °C 42.4 °F /  5.8 °C 30.05 in /  1017.5 hPa WNW 2.4 mph /  3.9 km/h 4.6 mph /  7.4 km/h 53 % 0.00 in /  0 mm
12:41 60.2 °F /  15.7 °C 40.4 °F /  4.7 °C 30.05 in /  1017.5 hPa West 6.1 mph /  9.8 km/h 10.4 mph /  16.7 km/h 48 % 0.00 in /  0 mm
12:46 60.4 °F /  15.8 °C 40.6 °F /  4.8 °C 30.05 in /  1017.5 hPa WNW 3.5 mph /  5.6 km/h 5.8 mph /  9.3 km/h 48 % 0.00 in /  0 mm
12:51 60.7 °F /  15.9 °C 40.9 °F /  4.9 °C 30.05 in /  1017.5 hPa WNW 3.8 mph /  6.1 km/h 8.1 mph /  13 km/h 48 % 0.00 in /  0 mm
12:56 60.9 °F /  16.1 °C 40.5 °F /  4.7 °C 30.05 in /  1017.5 hPa WNW 4.4 mph /  7.1 km/h 12.7 mph /  20.4 km/h 47 % 0.00 in /  0 mm
13:01 61.1 °F /  16.2 °C 40.7 °F /  4.8 °C 30.05 in /  1017.5 hPa West 4.8 mph /  7.7 km/h 11.5 mph /  18.5 km/h 47 % 0.00 in /  0 mm
13:06 61.2 °F /  16.2 °C 40.2 °F /  4.6 °C 30.04 in /  1017.2 hPa West 5.2 mph /  8.4 km/h 8.1 mph /  13 km/h 46 % 0.00 in /  0 mm
13:16 61.6 °F /  16.4 °C 40.0 °F /  4.4 °C 30.04 in /  1017.2 hPa SSW 3.0 mph /  4.8 km/h 5.0 mph /  8 km/h 45 % 0.00 in /  0 mm
13:26 61.9 °F /  16.6 °C 40.9 °F /  4.9 °C 30.04 in /  1017.2 hPa West 2.6 mph /  4.2 km/h 5.8 mph /  9.3 km/h 46 % 0.00 in /  0 mm
13:31 62.0 °F /  16.7 °C 41.0 °F /  5 °C 30.04 in /  1017.2 hPa WSW 4.4 mph /  7.1 km/h 11.5 mph /  18.5 km/h 46 % 0.00 in /  0 mm
13:42 62.3 °F /  16.8 °C 40.7 °F /  4.8 °C 30.04 in /  1017.2 hPa SW 3.8 mph /  6.1 km/h 8.1 mph /  13 km/h 45 % 0.00 in /  0 mm
13:47 62.4 °F /  16.9 °C 39.6 °F /  4.2 °C 30.04 in /  1017.2 hPa West 6.5 mph /  10.5 km/h 9.0 mph /  14.5 km/h 43 % 0.00 in /  0 mm
13:52 62.5 °F /  16.9 °C 39.1 °F /  3.9 °C 30.05 in /  1017.5 hPa WNW 6.0 mph /  9.7 km/h 11.5 mph /  18.5 km/h 42 % 0.00 in /  0 mm
14:02 62.4 °F /  16.9 °C 40.2 °F /  4.6 °C 30.05 in /  1017.5 hPa WNW 5.5 mph /  8.9 km/h 12.7 mph /  20.4 km/h 44 % 0.00 in /  0 mm
14:07 62.2 °F /  16.8 °C 40.0 °F /  4.4 °C 30.05 in /  1017.5 hPa NW 7.7 mph /  12.4 km/h 13.8 mph /  22.2 km/h 44 % 0.00 in /  0 mm
14:12 61.8 °F /  16.6 °C 39.1 °F /  3.9 °C 30.06 in /  1017.8 hPa NW 4.7 mph /  7.6 km/h 11.5 mph /  18.5 km/h 43 % 0.00 in /  0 mm
14:17 61.6 °F /  16.4 °C 38.3 °F /  3.5 °C 30.06 in /  1017.8 hPa NW 7.5 mph /  12.1 km/h 11.5 mph /  18.5 km/h 42 % 0.00 in /  0 mm
14:22 61.4 °F /  16.3 °C 38.1 °F /  3.4 °C 30.06 in /  1017.8 hPa West 5.5 mph /  8.9 km/h 11.5 mph /  18.5 km/h 42 % 0.00 in /  0 mm
14:32 61.1 °F /  16.2 °C 37.8 °F /  3.2 °C 30.06 in /  1017.8 hPa NW 7.5 mph /  12.1 km/h 11.5 mph /  18.5 km/h 42 % 0.00 in /  0 mm
14:37 60.9 °F /  16.1 °C 37.0 °F /  2.8 °C 30.06 in /  1017.8 hPa WNW 6.4 mph /  10.3 km/h 11.5 mph /  18.5 km/h 41 % 0.00 in /  0 mm
14:42 60.9 °F /  16.1 °C 38.8 °F /  3.8 °C 30.06 in /  1017.8 hPa NW 3.0 mph /  4.8 km/h 8.1 mph /  13 km/h 44 % 0.00 in /  0 mm
14:47 60.7 °F /  15.9 °C 38.6 °F /  3.7 °C 30.07 in /  1018.2 hPa NW 5.0 mph /  8 km/h 10.4 mph /  16.7 km/h 44 % 0.00 in /  0 mm
14:57 60.1 °F /  15.6 °C 38.1 °F /  3.4 °C 30.07 in /  1018.2 hPa WSW 6.1 mph /  9.8 km/h 15.0 mph /  24.1 km/h 44 % 0.00 in /  0 mm
15:02 59.8 °F /  15.4 °C 36.6 °F /  2.6 °C 30.08 in /  1018.5 hPa North 5.7 mph /  9.2 km/h 11.5 mph /  18.5 km/h 42 % 0.00 in /  0 mm
15:12 59.4 °F /  15.2 °C 33.1 °F /  0.6 °C 30.09 in /  1018.8 hPa West 7.4 mph /  11.9 km/h 12.7 mph /  20.4 km/h 37 % 0.00 in /  0 mm
15:16 59.4 °F /  15.2 °C 33.8 °F /  1 °C 30.09 in /  1018.8 hPa WNW 7.0 mph /  11.3 km/h 14.0 mph /  22.5 km/h 38 % 0.00 in /  0 mm
15:21 59.3 °F /  15.2 °C 34.3 °F /  1.3 °C 30.09 in /  1018.8 hPa NW 6.0 mph /  9.7 km/h 12.0 mph /  19.3 km/h 39 % 0.00 in /  0 mm
15:26 59.1 °F /  15.1 °C 38.4 °F /  3.6 °C 30.10 in /  1019.2 hPa NW 5.0 mph /  8 km/h 12.0 mph /  19.3 km/h 46 % 0.00 in /  0 mm
15:31 58.9 °F /  14.9 °C 37.6 °F /  3.1 °C 30.10 in /  1019.2 hPa West 3.7 mph /  6 km/h 6.9 mph /  11.1 km/h 45 % 0.00 in /  0 mm
15:40 58.2 °F /  14.6 °C 36.9 °F /  2.7 °C 30.11 in /  1019.5 hPa North 6.7 mph /  10.8 km/h 15.0 mph /  24.1 km/h 45 % 0.00 in /  0 mm
15:46 57.8 °F /  14.3 °C 37.1 °F /  2.8 °C 30.11 in /  1019.5 hPa WNW 7.0 mph /  11.3 km/h 15.0 mph /  24.1 km/h 46 % 0.00 in /  0 mm
15:50 57.5 °F /  14.2 °C 35.2 °F /  1.8 °C 30.12 in /  1019.9 hPa WNW 6.0 mph /  9.7 km/h 15.0 mph /  24.1 km/h 43 % 0.00 in /  0 mm
15:55 57.4 °F /  14.1 °C 36.2 °F /  2.3 °C 30.12 in /  1019.9 hPa NW 4.0 mph /  6.4 km/h 11.5 mph /  18.5 km/h 45 % 0.00 in /  0 mm
16:00 57.2 °F /  14 °C 38.2 °F /  3.4 °C 30.12 in /  1019.9 hPa WNW 2.7 mph /  4.3 km/h 11.5 mph /  18.5 km/h 49 % 0.00 in /  0 mm
16:05 57.0 °F /  13.9 °C 38.0 °F /  3.3 °C 30.12 in /  1019.9 hPa NW 3.0 mph /  4.8 km/h 10.4 mph /  16.7 km/h 49 % 0.00 in /  0 mm
16:11 56.6 °F /  13.7 °C 38.2 °F /  3.4 °C 30.13 in /  1020.2 hPa NNW 6.0 mph /  9.7 km/h 15.0 mph /  24.1 km/h 50 % 0.00 in /  0 mm
16:15 56.3 °F /  13.5 °C 36.8 °F /  2.7 °C 30.13 in /  1020.2 hPa NW 6.5 mph /  10.5 km/h 10.0 mph /  16.1 km/h 48 % 0.00 in /  0 mm
16:21 56.1 °F /  13.4 °C 36.7 °F /  2.6 °C 30.14 in /  1020.5 hPa NNW 5.0 mph /  8 km/h 9.0 mph /  14.5 km/h 48 % 0.00 in /  0 mm
16:26 55.9 °F /  13.3 °C 36.5 °F /  2.5 °C 30.14 in /  1020.5 hPa NW 6.0 mph /  9.7 km/h 12.0 mph /  19.3 km/h 48 % 0.00 in /  0 mm
16:31 55.7 °F /  13.2 °C 36.3 °F /  2.4 °C 30.14 in /  1020.5 hPa WNW 3.0 mph /  4.8 km/h 12.0 mph /  19.3 km/h 48 % 0.00 in /  0 mm
16:36 55.4 °F /  13 °C 37.1 °F /  2.8 °C 30.15 in /  1020.9 hPa WNW 6.0 mph /  9.7 km/h 13.0 mph /  20.9 km/h 50 % 0.00 in /  0 mm
16:41 55.3 °F /  12.9 °C 37.0 °F /  2.8 °C 30.15 in /  1020.9 hPa WNW 5.0 mph /  8 km/h 12.0 mph /  19.3 km/h 50 % 0.00 in /  0 mm
16:45 55.1 °F /  12.8 °C 36.2 °F /  2.3 °C 30.16 in /  1021.2 hPa WNW 6.0 mph /  9.7 km/h 12.0 mph /  19.3 km/h 49 % 0.00 in /  0 mm
16:50 54.9 °F /  12.7 °C 35.6 °F /  2 °C 30.16 in /  1021.2 hPa WNW 2.7 mph /  4.3 km/h 8.1 mph /  13 km/h 48 % 0.00 in /  0 mm
16:56 54.8 °F /  12.7 °C 36.0 °F /  2.2 °C 30.16 in /  1021.2 hPa NW 5.0 mph /  8 km/h 12.0 mph /  19.3 km/h 49 % 0.00 in /  0 mm
17:06 54.4 °F /  12.4 °C 37.1 °F /  2.8 °C 30.17 in /  1021.6 hPa West 3.9 mph /  6.3 km/h 11.5 mph /  18.5 km/h 52 % 0.00 in /  0 mm
17:11 54.2 °F /  12.3 °C 37.4 °F /  3 °C 30.17 in /  1021.6 hPa NW 2.7 mph /  4.3 km/h 6.9 mph /  11.1 km/h 53 % 0.00 in /  0 mm
17:16 54.0 °F /  12.2 °C 37.2 °F /  2.9 °C 30.17 in /  1021.6 hPa WNW 3.5 mph /  5.6 km/h 9.2 mph /  14.8 km/h 53 % 0.00 in /  0 mm
17:41 53.1 °F /  11.7 °C 39.6 °F /  4.2 °C 30.19 in /  1022.2 hPa NW 2.1 mph /  3.4 km/h 6.9 mph /  11.1 km/h 60 % 0.00 in /  0 mm
17:46 52.7 °F /  11.5 °C 37.4 °F /  3 °C 30.20 in /  1022.6 hPa North 5.8 mph /  9.3 km/h 11.5 mph /  18.5 km/h 56 % 0.00 in /  0 mm
17:51 52.5 °F /  11.4 °C 36.8 °F /  2.7 °C 30.20 in /  1022.6 hPa NNE 9.5 mph /  15.3 km/h 12.0 mph /  19.3 km/h 55 % 0.00 in /  0 mm
17:56 52.3 °F /  11.3 °C 36.1 °F /  2.3 °C 30.21 in /  1022.9 hPa NNW 6.4 mph /  10.3 km/h 11.5 mph /  18.5 km/h 54 % 0.00 in /  0 mm
18:01 52.2 °F /  11.2 °C 35.6 °F /  2 °C 30.21 in /  1022.9 hPa North 7.3 mph /  11.7 km/h 16.1 mph /  25.9 km/h 53 % 0.00 in /  0 mm
18:11 52.0 °F /  11.1 °C 35.4 °F /  1.9 °C 30.22 in /  1023.2 hPa NNW 6.2 mph /  10 km/h 12.0 mph /  19.3 km/h 53 % 0.00 in /  0 mm
18:16 51.8 °F /  11 °C 35.7 °F /  2.1 °C 30.22 in /  1023.2 hPa NNE 6.3 mph /  10.1 km/h 10.4 mph /  16.7 km/h 54 % 0.00 in /  0 mm
18:22 51.7 °F /  10.9 °C 35.1 °F /  1.7 °C 30.22 in /  1023.2 hPa North 5.8 mph /  9.3 km/h 11.5 mph /  18.5 km/h 53 % 0.00 in /  0 mm
18:37 51.3 °F /  10.7 °C 34.7 °F /  1.5 °C 30.23 in /  1023.6 hPa NNW 7.3 mph /  11.7 km/h 13.0 mph /  20.9 km/h 53 % 0.00 in /  0 mm
18:52 50.8 °F /  10.4 °C 33.8 °F /  1 °C 30.24 in /  1023.9 hPa NNW 5.0 mph /  8 km/h 8.1 mph /  13 km/h 52 % 0.00 in /  0 mm
18:57 50.6 °F /  10.3 °C 34.1 °F /  1.2 °C 30.24 in /  1023.9 hPa North 2.8 mph /  4.5 km/h 6.9 mph /  11.1 km/h 53 % 0.00 in /  0 mm
19:02 50.5 °F /  10.3 °C 34.5 °F /  1.4 °C 30.24 in /  1023.9 hPa NNW 3.2 mph /  5.1 km/h 10.4 mph /  16.7 km/h 54 % 0.00 in /  0 mm
19:05 50.3 °F /  10.2 °C 34.7 °F /  1.5 °C 30.25 in /  1024.3 hPa NNW 6.9 mph /  11.1 km/h 11.5 mph /  18.5 km/h 55 % 0.00 in /  0 mm
19:10 50.0 °F /  10 °C 34.0 °F /  1.1 °C 30.25 in /  1024.3 hPa NNW 2.9 mph /  4.7 km/h 8.1 mph /  13 km/h 54 % 0.00 in /  0 mm
19:12 50.0 °F /  10 °C 34.5 °F /  1.4 °C 30.25 in /  1024.3 hPa NW 5.9 mph /  9.5 km/h 12.0 mph /  19.3 km/h 55 % 0.00 in /  0 mm
19:22 49.7 °F /  9.8 °C 33.2 °F /  0.7 °C 30.27 in /  1024.9 hPa NNW 3.8 mph /  6.1 km/h 4.6 mph /  7.4 km/h 53 % 0.00 in /  0 mm
19:27 49.5 °F /  9.7 °C 33.5 °F /  0.8 °C 30.27 in /  1024.9 hPa North 6.9 mph /  11.1 km/h 10.0 mph /  16.1 km/h 54 % 0.00 in /  0 mm
19:37 48.9 °F /  9.4 °C 33.0 °F /  0.6 °C 30.27 in /  1024.9 hPa North 8.9 mph /  14.3 km/h 13.8 mph /  22.2 km/h 54 % 0.00 in /  0 mm
19:42 48.8 °F /  9.3 °C 32.9 °F /  0.5 °C 30.27 in /  1024.9 hPa NNW 5.2 mph /  8.4 km/h 11.5 mph /  18.5 km/h 54 % 0.00 in /  0 mm
19:53 48.6 °F /  9.2 °C 34.0 °F /  1.1 °C 30.28 in /  1025.3 hPa NNE 5.1 mph /  8.2 km/h 11.5 mph /  18.5 km/h 57 % 0.00 in /  0 mm
20:08 48.0 °F /  8.9 °C 33.5 °F /  0.8 °C 30.28 in /  1025.3 hPa North 7.4 mph /  11.9 km/h 15.0 mph /  24.1 km/h 57 % 0.00 in /  0 mm
20:13 47.8 °F /  8.8 °C 33.3 °F /  0.7 °C 30.28 in /  1025.3 hPa NNE 7.3 mph /  11.7 km/h 10.4 mph /  16.7 km/h 57 % 0.00 in /  0 mm
20:18 47.7 °F /  8.7 °C 33.2 °F /  0.7 °C 30.29 in /  1025.6 hPa North 4.5 mph /  7.2 km/h 10.4 mph /  16.7 km/h 57 % 0.00 in /  0 mm
20:23 47.6 °F /  8.7 °C 33.5 °F /  0.8 °C 30.29 in /  1025.6 hPa NNE 7.0 mph /  11.3 km/h 13.8 mph /  22.2 km/h 58 % 0.00 in /  0 mm
20:25 47.5 °F /  8.6 °C 33.9 °F /  1.1 °C 30.29 in /  1025.6 hPa North 7.5 mph /  12.1 km/h 11.5 mph /  18.5 km/h 59 % 0.00 in /  0 mm
20:30 47.3 °F /  8.5 °C 33.7 °F /  0.9 °C 30.29 in /  1025.6 hPa NE 8.0 mph /  12.9 km/h 10.0 mph /  16.1 km/h 59 % 0.00 in /  0 mm
20:35 47.1 °F /  8.4 °C 33.1 °F /  0.6 °C 30.29 in /  1025.6 hPa North 7.4 mph /  11.9 km/h 11.5 mph /  18.5 km/h 58 % 0.00 in /  0 mm
20:45 46.8 °F /  8.2 °C 32.8 °F /  0.4 °C 30.30 in /  1026 hPa NNW 7.8 mph /  12.6 km/h 13.8 mph /  22.2 km/h 58 % 0.00 in /  0 mm
20:50 46.7 °F /  8.2 °C 32.7 °F /  0.4 °C 30.29 in /  1025.6 hPa NNE 5.6 mph /  9 km/h 10.4 mph /  16.7 km/h 58 % 0.00 in /  0 mm
21:01 46.4 °F /  8 °C 32.0 °F /  0 °C 30.30 in /  1026 hPa NNW 6.9 mph /  11.1 km/h 7.0 mph /  11.3 km/h 57 % 0.00 in /  0 mm
21:10 46.1 °F /  7.8 °C 32.1 °F /  0.1 °C 30.30 in /  1026 hPa North 9.0 mph /  14.5 km/h 18.0 mph /  29 km/h 58 % 0.00 in /  0 mm
21:15 45.9 °F /  7.7 °C 31.1 °F /  -0.5 °C 30.30 in /  1026 hPa NE 9.8 mph /  15.8 km/h 15.0 mph /  24.1 km/h 56 % 0.00 in /  0 mm
21:30 45.6 °F /  7.6 °C 31.2 °F /  -0.4 °C 30.30 in /  1026 hPa North 6.9 mph /  11.1 km/h 11.5 mph /  18.5 km/h 57 % 0.00 in /  0 mm
21:35 45.5 °F /  7.5 °C 31.6 °F /  -0.2 °C 30.30 in /  1026 hPa NE 6.9 mph /  11.1 km/h 11.0 mph /  17.7 km/h 58 % 0.00 in /  0 mm
21:40 45.3 °F /  7.4 °C 31.8 °F /  -0.1 °C 30.30 in /  1026 hPa NNE 6.9 mph /  11.1 km/h 11.5 mph /  18.5 km/h 59 % 0.00 in /  0 mm
21:45 45.2 °F /  7.3 °C 31.3 °F /  -0.4 °C 30.31 in /  1026.3 hPa NNE 6.0 mph /  9.7 km/h 10.4 mph /  16.7 km/h 58 % 0.00 in /  0 mm
21:50 45.1 °F /  7.3 °C 31.2 °F /  -0.4 °C 30.31 in /  1026.3 hPa North 8.1 mph /  13 km/h 11.5 mph /  18.5 km/h 58 % 0.00 in /  0 mm
21:55 45.0 °F /  7.2 °C 31.1 °F /  -0.5 °C 30.31 in /  1026.3 hPa NNE 7.3 mph /  11.7 km/h 13.0 mph /  20.9 km/h 58 % 0.00 in /  0 mm
22:00 44.9 °F /  7.2 °C 30.6 °F /  -0.8 °C 30.31 in /  1026.3 hPa NNE 6.6 mph /  10.6 km/h 11.5 mph /  18.5 km/h 57 % 0.00 in /  0 mm
22:05 44.7 °F /  7.1 °C 30.8 °F /  -0.7 °C 30.31 in /  1026.3 hPa NNE 3.7 mph /  6 km/h 8.1 mph /  13 km/h 58 % 0.00 in /  0 mm
22:10 44.6 °F /  7 °C 31.1 °F /  -0.5 °C 30.31 in /  1026.3 hPa North 6.1 mph /  9.8 km/h 8.1 mph /  13 km/h 59 % 0.00 in /  0 mm
22:15 44.5 °F /  6.9 °C 31.1 °F /  -0.5 °C 30.31 in /  1026.3 hPa North 6.3 mph /  10.1 km/h 11.5 mph /  18.5 km/h 59 % 0.00 in /  0 mm
22:21 44.4 °F /  6.9 °C 30.5 °F /  -0.8 °C 30.31 in /  1026.3 hPa NNE 6.0 mph /  9.7 km/h 10.0 mph /  16.1 km/h 58 % 0.00 in /  0 mm
22:31 44.2 °F /  6.8 °C 30.8 °F /  -0.7 °C 30.31 in /  1026.3 hPa North 6.0 mph /  9.7 km/h 10.0 mph /  16.1 km/h 59 % 0.00 in /  0 mm
22:41 44.0 °F /  6.7 °C 30.6 °F /  -0.8 °C 30.31 in /  1026.3 hPa North 6.9 mph /  11.1 km/h 9.0 mph /  14.5 km/h 59 % 0.00 in /  0 mm
22:51 43.7 °F /  6.5 °C 30.7 °F /  -0.7 °C 30.31 in /  1026.3 hPa North 7.3 mph /  11.7 km/h 10.0 mph /  16.1 km/h 60 % 0.00 in /  0 mm
22:56 43.7 °F /  6.5 °C 30.3 °F /  -0.9 °C 30.31 in /  1026.3 hPa North 6.4 mph /  10.3 km/h 10.4 mph /  16.7 km/h 59 % 0.00 in /  0 mm
23:01 43.6 °F /  6.4 °C 30.6 °F /  -0.8 °C 30.31 in /  1026.3 hPa North 6.9 mph /  11.1 km/h 10.4 mph /  16.7 km/h 60 % 0.00 in /  0 mm
23:11 43.4 °F /  6.3 °C 30.4 °F /  -0.9 °C 30.31 in /  1026.3 hPa NNE 6.0 mph /  9.7 km/h 9.2 mph /  14.8 km/h 60 % 0.00 in /  0 mm
23:17 43.3 °F /  6.3 °C 30.3 °F /  -0.9 °C 30.32 in /  1026.6 hPa NE 5.2 mph /  8.4 km/h 9.2 mph /  14.8 km/h 60 % 0.00 in /  0 mm
23:22 43.2 °F /  6.2 °C 30.6 °F /  -0.8 °C 30.32 in /  1026.6 hPa NNE 5.5 mph /  8.9 km/h 8.1 mph /  13 km/h 61 % 0.00 in /  0 mm
23:27 43.2 °F /  6.2 °C 30.6 °F /  -0.8 °C 30.31 in /  1026.3 hPa NNE 4.5 mph /  7.2 km/h 6.9 mph /  11.1 km/h 61 % 0.00 in /  0 mm
23:37 43.0 °F /  6.1 °C 30.5 °F /  -0.8 °C 30.32 in /  1026.6 hPa North 3.4 mph /  5.5 km/h 5.8 mph /  9.3 km/h 61 % 0.00 in /  0 mm
23:42 42.9 °F /  6.1 °C 30.4 °F /  -0.9 °C 30.32 in /  1026.6 hPa North 6.6 mph /  10.6 km/h 10.4 mph /  16.7 km/h 61 % 0.00 in /  0 mm
23:47 42.8 °F /  6 °C 30.3 °F /  -0.9 °C 30.32 in /  1026.6 hPa NNE 3.1 mph /  5 km/h 4.6 mph /  7.4 km/h 61 % 0.00 in /  0 mm
23:52 42.7 °F /  5.9 °C 30.2 °F /  -1 °C 30.32 in /  1026.6 hPa North 5.1 mph /  8.2 km/h 8.1 mph /  13 km/h 61 % 0.00 in /  0 mm
23:57 42.7 °F /  5.9 °C 30.2 °F /  -1 °C 30.32 in /  1026.6 hPa North 1.6 mph /  2.6 km/h 3.5 mph /  5.6 km/h 61 % 0.00 in /  0 mm
Crab Meadow Weather
Compliments of Weather Underground - 2.5 mb

Script developed by  Jim McMurry - jmcmurry@mwt.net Adapted for the template by  Wim van der Kuil - Leuven-Template.eu

Weather Terms: Ice Storm Warning - Accumulations of 1/4 inch or more of freezing rain.